This demonstration page uses our WeatherBlox Daily Observations layout. Learn more.

Left ArrowRight Arrow

39.51506, -84.39828

Hourly Observations for January 31, 2021

Temp ( °F °C ) Dew Point ( °F °C ) Humidity (%) Winds ( mph kmh ) Pressure ( in mb ) Visibility ( mi km ) Precip ( " mm )
12:15 am 00:15 Cloudy with Light Rain 33 0.7 33 0.5 99 99 ESE 5 7 29.98 1015 7 11 0.01 0.25
12:35 am 00:35 Cloudy with Light Snow 33 0.7 33 0.5 99 99 SSE 5 7 29.98 1015 4 6 0.02 0.51
12:55 am 00:55 Cloudy with Light Snow 33 0.6 33 0.5 99 99 E 3 6 29.97 1015 5 8 0.04 1.02
1:15 am 01:15 Cloudy with Light Snow 33 0.6 33 0.6 100 100 ESE 8 13 29.96 1015 4 6 0.02 0.51
1:35 am 01:35 Cloudy with Light Snow 33 0.6 33 0.5 99 99 E 8 13 29.94 1014 4 6 0.05 1.27
1:55 am 01:55 Cloudy with Light Snow 33 0.8 33 0.7 99 99 ESE 8 13 29.92 1013 7 11 0.06 1.52
2:15 am 02:15 Cloudy with Light Rain 34 1.1 33 0.8 98 98 ESE 9 15 29.91 1013 10 16 0.00 0.00
2:35 am 02:35 Cloudy with Light Rain 34 1.3 34 0.9 97 97 ESE 12 19 29.90 1013 10 16 0.00 0.00
2:55 am 02:55 Cloudy with Drizzle 35 1.5 34 1 97 97 SE 8 13 29.88 1012 10 16 0.00 0.00
3:15 am 03:15 Cloudy with Drizzle 35 1.6 34 1.1 97 97 ESE 13 20 29.87 1012 10 16 0.00 0.00
3:35 am 03:35 Cloudy with Drizzle 35 1.7 34 1.2 97 97 SE 12 19 29.87 1012 10 16 0.00 0.00
3:55 am 03:55 Cloudy with Drizzle 35 1.7 34 1.2 97 97 SE 9 15 29.86 1011 10 16 0.00 0.00
4:15 am 04:15 Cloudy 35 1.8 34 1.1 95 95 SE 8 13 29.84 1010 10 16 0.00 0.00
4:35 am 04:35 Cloudy 35 1.8 34 1.2 96 96 SE 6 9 29.83 1010 10 16 0.00 0.00
4:55 am 04:55 Cloudy 36 2 34 1.3 95 95 ESE 3 6 29.82 1010 10 16 0.00 0.00
5:15 am 05:15 Cloudy 36 2 34 1.3 95 95 E 9 15 29.81 1009 10 16 0.00 0.00
5:35 am 05:35 Cloudy with Drizzle 36 2 34 1.3 95 95 ESE 8 13 29.81 1009 10 16 0.00 0.00
5:55 am 05:55 Cloudy with Light Rain 36 2 35 1.4 96 96 ESE 8 13 29.80 1009 10 16 0.01 0.25
6:15 am 06:15 Cloudy with Light Rain 36 2 35 1.5 97 97 E 7 11 29.80 1009 10 16 0.00 0.00
6:35 am 06:35 Cloudy with Light Rain 36 2.1 35 1.6 97 97 E 8 13 29.79 1009 7 11 0.01 0.25
6:55 am 06:55 Cloudy with Light Rain 35 1.9 35 1.6 98 98 E 7 11 29.79 1009 5 8 0.04 1.02
7:15 am 07:15 Cloudy with Light Rain 35 1.9 35 1.6 98 98 ENE 6 9 29.79 1009 7 11 0.03 0.76
7:35 am 07:35 Cloudy with Rain 35 1.6 35 1.5 99 99 E 3 6 29.78 1008 5 8 0.06 1.52
7:55 am 07:55 Cloudy with Light Wintry Mix 35 1.6 35 1.5 99 99 ENE 8 13 29.78 1008 4 6 0.11 2.79
8:15 am 08:15 Cloudy with Rain 35 1.7 35 1.6 99 99 ENE 8 13 29.77 1008 4 6 0.03 0.76
8:35 am 08:35 Cloudy with Light Rain 35 1.6 35 1.6 100 100 ENE 10 17 29.77 1008 7 11 0.05 1.27
8:55 am 08:55 Cloudy with Light Rain 35 1.6 35 1.6 100 100 ENE 8 13 29.77 1008 7 11 0.07 1.78
9:15 am 09:15 Cloudy with Rain 35 1.6 35 1.5 99 99 ENE 8 13 29.76 1008 5 8 0.02 0.51
9:35 am 09:35 Cloudy with Light Rain 35 1.6 35 1.5 99 99 ENE 7 11 29.76 1008 5 8 0.05 1.27
9:55 am 09:55 Cloudy with Light Rain 35 1.7 35 1.6 99 99 ENE 9 15 29.76 1008 7 11 0.07 1.78
10:15 am 10:15 Cloudy with Light Rain 35 1.7 35 1.7 100 100 ENE 9 15 29.76 1008 3 4 0.00 0.00
10:35 am 10:35 Cloudy with Light Rain 35 1.6 35 1.6 100 100 ENE 9 15 29.75 1007 3 5 0.01 0.25
10:55 am 10:55 Cloudy with Light Rain 36 2 N/A N/A ENE 9 15 29.75 1007 3 5 0.03 0.76
11:15 am 11:15 Cloudy with Light Rain 36 2 N/A N/A ENE 8 13 29.76 1008 5 8 0.02 0.51
11:35 am 11:35 Cloudy with Light Rain 35 1.9 35 1.9 100 100 ENE 8 13 29.75 1007 4 6 0.05 1.27
11:55 am 11:55 Cloudy with Light Rain 36 2 36 2 100 100 ENE 7 11 29.75 1007 4 6 0.08 2.03
12:15 pm 12:15 Cloudy with Light Rain 36 2.1 36 2 99 99 ENE 8 13 29.75 1007 10 16 0.01 0.25
12:35 pm 12:35 Cloudy with Light Rain 36 2.2 36 2.1 99 99 ENE 8 13 29.74 1007 10 16 0.01 0.25
12:55 pm 12:55 Cloudy with Light Rain 36 2.3 36 2.2 99 99 ENE 7 11 29.74 1007 7 11 0.02 0.51
1:15 pm 13:15 Cloudy with Light Rain 37 2.5 36 2.4 99 99 ENE 6 9 29.73 1007 7 11 0.00 0.00
1:35 pm 13:35 Cloudy with Light Rain 37 2.5 36 2.4 99 99 ENE 7 11 29.73 1007 7 11 0.00 0.00
1:55 pm 13:55 Cloudy with Light Rain 37 2.5 36 2.4 99 99 ENE 7 11 29.73 1007 5 8 0.01 0.25
2:15 pm 14:15 Cloudy with Light Rain 37 3 37 3 100 100 Calm 29.73 1007 5 8 0.00 0.00
2:35 pm 14:35 Cloudy with Light Rain 37 3 N/A N/A NE 6 9 29.73 1007 4 6 0.01 0.25
2:55 pm 14:55 Cloudy with Light Rain 37 3 N/A N/A NNE 6 9 29.74 1007 7 11 0.02 0.51
3:15 pm 15:15 Cloudy with Light Rain 37 3 N/A N/A NNE 5 7 29.74 1007 5 8 0.00 0.00
3:35 pm 15:35 Cloudy with Light Rain 37 3 37 3 100 100 NNE 5 7 29.75 1007 7 11 0.01 0.25
3:55 pm 15:55 Cloudy with Light Rain 37 2.9 37 2.9 100 100 Calm 29.75 1007 10 16 0.02 0.51
4:15 pm 16:15 Cloudy with Light Rain 37 3 37 3 100 100 N 6 9 29.76 1008 10 16 0.00 0.00
4:35 pm 16:35 Cloudy with Light Rain 37 2.7 37 2.6 99 99 NNE 8 13 29.76 1008 10 16 0.00 0.00
4:55 pm 16:55 Cloudy with Light Rain 37 2.6 36 2.4 99 99 NNE 7 11 29.77 1008 10 16 0.00 0.00
5:15 pm 17:15 Cloudy with Light Rain 36 2.3 36 2.1 99 99 NNE 7 11 29.78 1008 10 16 0.00 0.00
5:35 pm 17:35 Cloudy with Light Rain 36 2.2 36 2.1 99 99 N 6 9 29.79 1009 4 6 0.00 0.00
5:55 pm 17:55 Cloudy with Light Rain 35 1.9 35 1.8 99 99 NNE 7 11 29.79 1009 5 8 0.00 0.00
6:15 pm 18:15 Cloudy with Light Rain 35 1.6 35 1.5 99 99 N 7 11 29.80 1009 4 6 0.00 0.00
6:35 pm 18:35 Cloudy with Light Rain 35 1.4 34 1.3 99 99 N 7 11 29.81 1010 7 11 0.00 0.00
6:55 pm 18:55 Cloudy with Light Rain 34 1.3 34 1.2 99 99 N 7 11 29.81 1010 7 11 0.00 0.00
7:15 pm 19:15 Cloudy with Light Rain 34 1 34 0.9 99 99 N 7 11 29.82 1010 5 8 0.00 0.00
7:35 pm 19:35 Cloudy with Light Rain 34 0.9 33 0.8 99 99 N 7 11 29.83 1010 4 6 0.00 0.00
7:55 pm 19:55 Cloudy with Light Snow 33 0.7 33 0.6 99 99 N 7 11 29.83 1010 4 6 0.00 0.00
8:15 pm 20:15 Cloudy with Light Snow 33 0.7 33 0.6 99 99 N 7 11 29.84 1011 5 8 0.00 0.00
8:35 pm 20:35 Cloudy with Light Snow 33 0.5 33 0.4 99 99 N 8 13 29.84 1011 3 5 0.00 0.00
8:55 pm 20:55 Cloudy with Light Snow 33 0.5 33 0.4 99 99 N 7 11 29.84 1011 3 5 0.00 0.00
9:15 pm 21:15 Cloudy with Light Snow 33 0.4 33 0.3 99 99 N 9 15 29.84 1011 3 5 0.00 0.00
9:35 pm 21:35 Cloudy with Light Rain 33 0.3 32 0.1 99 99 N 10 17 29.85 1011 4 6 0.00 0.00
9:55 pm 21:55 Cloudy with Light Snow 33 0.3 32 -0.1 97 97 N 12 19 29.85 1011 4 6 0.00 0.00
10:15 pm 22:15 Cloudy with Light Snow 32 0.1 31 -0.4 96 96 N 13 20 29.86 1011 7 11 0.00 0.00
10:35 pm 22:35 Cloudy with Light Snow 32 0.1 31 -0.5 96 96 N 9 15 29.86 1011 7 11 0.00 0.00
11:15 pm 23:15 Cloudy with Light Snow 32 0 31 -0.6 96 96 N 10 17 29.87 1012 5 8 0.00 0.00
11:35 pm 23:35 Cloudy with Light Snow 32 0 31 -0.6 96 96 N 9 15 29.87 1012 5 8 0.00 0.00
11:55 pm 23:55 Cloudy with Light Snow 32 0 31 -0.6 96 96 NNW 8 13 29.88 1012 7 11 0.00 0.00

Powered by AerisWeather